STARLINK-36152 (66968 NORAD) Tracking and Keplerian Element Data

This shows tracking and keplerian element data for the satellite.

Feedback or suggestion? Click here.




ElementValue
Catalog66968
NameSTARLINK-36152
Epoch Orbit303
Epoch Day354.25003472
Epoch Year2025
RAAN121.1326
Inclination43.0014
Eccentricity0.0001728
Argument of Perigee270.397
Mean Anonmoly107.2535
Mean Motion15.81203767
Decay Rate-0.01361071
L11 66968U 25288K 25354.25003472 -.01361071 00000+0 -75164-2 0 9997
L22 66968 43.0014 121.1326 0001728 270.3970 107.2535 15.81203767 3030



Live tracking and technical data element details for STARLINK-36152 (NORAD 66968). STARLINK-36152 can be tracked NOW for your location showing map with azimuth and elevation plus other details from your city location.







IsCatalogInMostPopularTable: catalog: 66968, numindb: 22
Update: records affected: 1



GetName: 66968 STARLINK-36152

Hit Count: updated at: Thu, 16 Apr 2026 05:42:37 GMT